COSMOS 2151

Last updated on Thu Oct 30 2025 00:02:15 GMT+0000 (Coordinated Universal Time)

1 21422U 91042A 25302.44953532 .00002285 00000+0 18404-3 0 9990 2 21422 82.4991 210.1685 0013578 136.4767 223.7531 14.99443885843527
UTC large
Height (km)
Speed (km/s)
/
Latitude / Longitude
Inclination (degrees)
Orbital Period (minutes)
Azimuth
Elevation
Range (km)
Doppler Factor

Next 0 passes for location: London (51.5072 / 0.1276)

Sorry there are no passes over London.